[[{"header":{"parameterUnit":"m.s-1","parameterCategory":1,"la1":30.2991,"la2":30.254,"lo1":-89.0895,"lo2":-89.0444,"dy":0.0017,"dx":0.0017,"nx":28,"ny":28,"refTime":"2024-07-07T21:00:00:Z","depth":0,"parameterNumber":2,"parameterNumberName":"U-component_of_WINDS"},"data":[0,0,0,0,0,0,0,0,0,0,0,0,0,0,0,0,0,0,0,0,0,0,0,0,0,0,0,0,0,0,0,0,0,0,0,0,0,0,0,0,0,0,0,0,0,0,0,0,0,0,0,0,0,0,0,0,0,0,-2.7789,-2.7789,0,-2.7706,-2.7705,-2.7705,-2.764,-2.764,-2.7639,-2.7639,-2.7551,-2.7549,-2.7547,0,0,0,0,0,0,0,0,0,0,0,0,0,-2.7891,-2.789,-2.779,-2.7789,-2.7787,-2.7707,-2.7705,-2.7704,-2.7641,-2.764,-2.7639,-2.7638,-2.7551,-2.7549,-2.7547,0,0,0,0,0,0,0,0,0,0,0,0,0,-2.7832,-2.7889,-2.779,-2.7746,-2.7741,-2.7707,-2.7705,-2.7704,-2.7641,-2.764,-2.7639,-2.7638,-2.7552,-2.7549,-2.7547,-2.7548,0,0,-2.7539,-2.7538,0,0,0,0,0,0,0,0,-2.7835,-2.7828,-2.7753,-2.7749,-2.7744,-2.7683,-2.7709,-2.7652,-2.7641,-2.7679,-2.7639,-2.7638,-2.7595,-2.7589,-2.7575,-2.7544,-2.754,-2.7538,-2.7537,-2.7536,-2.7535,0,0,0,0,0,0,0,-2.7839,-2.7831,-2.7757,-2.7752,-2.7746,-2.773,-2.772,-2.7698,-2.7643,-2.7675,-2.7671,-2.7662,-2.7592,-2.7578,-2.7573,-2.7539,-2.7538,-2.7536,-2.7534,-2.7533,-2.7505,-2.7506,0,0,0,0,0,0,-2.785,-2.7835,-2.7759,-2.7754,-2.7788,-2.7729,-2.7718,-2.7703,-2.7643,-2.7633,-2.7663,-2.7659,-2.7583,-2.7576,-2.7569,-2.7567,-2.7536,-2.7533,-2.7532,-2.7505,-2.7506,-2.7507,0,0,0,0,0,0,-2.7853,-2.7844,-2.7763,-2.7793,-2.7782,-2.7728,-2.7712,-2.7702,-2.7688,-2.7633,-2.7623,-2.7658,-2.7582,-2.7573,-2.7554,-2.7563,-2.7532,-2.753,-2.7504,-2.7505,-2.7506,-2.7562,0,0,0,0,0,0,-2.7856,-2.7846,-2.7846,-2.7794,-2.778,-2.7749,-2.7712,-2.7701,-2.7684,-2.7678,-2.7626,-2.7617,-2.7581,-2.7559,-2.7552,-2.7559,-2.7527,-2.7503,-2.7504,-2.7506,-2.756,-2.7566,-2.7571,0,0,0,0,0,-2.786,-2.7864,-2.7846,-2.7837,-2.778,-2.775,-2.7742,-2.7701,-2.7685,-2.7684,-2.765,-2.7619,-2.7564,-2.7557,-2.7549,-2.7555,-2.7502,-2.7504,-2.7506,-2.7557,-2.7564,-2.7571,0,0,0,0,0,0,-2.7918,-2.7857,-2.7836,-2.7824,-2.7793,-2.7739,-2.7737,-2.771,-2.7682,-2.7678,-2.7628,-2.7617,-2.7603,-2.7577,-2.7571,-2.7554,-2.7529,-2.7529,-2.7571,-2.7577,-2.7583,-2.7588,-2.7525,0,0,0,0,0,-2.7929,-2.7911,-2.7859,-2.7853,-2.7839,-2.7791,-2.7777,-2.7748,-2.7713,-2.77,-2.7663,-2.7631,-2.7606,-2.759,-2.7565,-2.7556,-2.7544,-2.7557,-2.7562,-2.7567,-2.7567,-2.7561,-2.7566,-2.7513,-2.7513,-2.7513,0,0,-2.7952,-2.7917,-2.7908,-2.7864,-2.7836,-2.7818,-2.778,-2.7762,-2.7748,-2.7696,-2.7676,-2.7649,-2.7609,-2.7596,-2.7588,-2.7574,-2.758,-2.757,-2.7574,-2.7571,-2.7564,-2.7569,-2.7573,-2.7514,-2.7514,-2.7514,0,0,-2.7985,-2.7957,-2.7949,-2.7923,-2.7882,-2.7851,-2.7849,-2.78,-2.778,-2.776,-2.7721,-2.7704,-2.7662,-2.7635,-2.7616,-2.7641,-2.7611,-2.7634,-2.7662,-2.7656,-2.7661,-2.7664,-2.7672,-2.7676,-2.7635,-2.7635,-2.7635,0,-2.8018,-2.799,-2.7948,-2.7933,-2.7914,-2.7868,-2.786,-2.7836,-2.7789,-2.7777,-2.7763,-2.771,-2.768,-2.766,-2.7666,-2.7652,-2.7648,-2.7638,-2.7664,-2.7667,-2.7669,-2.7676,-2.7679,-2.7638,-2.7637,-2.7637,-2.7637,0,-2.8033,-2.8014,-2.8012,-2.7969,-2.7951,-2.7939,-2.7895,-2.7881,-2.7855,-2.7825,-2.7805,-2.7768,-2.7734,-2.7727,-2.77,-2.7703,-2.7696,-2.7673,-2.7647,-2.7678,-2.7684,-2.7686,-2.7642,-2.7641,-2.764,-2.7639,0,0,-2.8097,-2.8033,-2.8033,-2.8013,-2.7966,-2.795,-2.7936,-2.7904,-2.7893,-2.7863,-2.785,-2.7817,-2.7796,-2.7775,-2.7745,-2.774,-2.7762,-2.7718,-2.7716,-2.7727,-2.7762,-2.7778,-2.7782,-2.7743,-2.7743,-2.7743,-2.7765,0,-2.8122,-2.8095,-2.8058,-2.8043,-2.8025,-2.7982,-2.7971,-2.794,-2.7913,-2.7893,-2.7862,-2.7839,-2.7814,-2.78,-2.7794,-2.7761,-2.7768,-2.7759,-2.7729,-2.7728,-2.7739,-2.7785,-2.7802,-2.7824,-2.7767,-2.7767,-2.7768,0,-2.8146,-2.8119,-2.8104,-2.8059,-2.8049,-2.804,-2.8007,-2.7989,-2.7954,-2.7934,-2.7912,-2.788,-2.7863,-2.7841,-2.7816,-2.7811,-2.7797,-2.7779,-2.7779,-2.7773,-2.7749,-2.7779,-2.783,-2.7833,-2.7771,-2.7771,-2.777,0,-2.8194,-2.8154,-2.8139,-2.8124,-2.8071,-2.8065,-2.8043,-2.8007,-2.799,-2.7962,-2.7951,-2.7921,-2.7905,-2.7882,-2.7843,-2.7831,-2.7823,-2.7798,-2.7805,-2.7806,-2.7804,-2.7804,-2.7852,-2.7798,-2.7798,-2.7798,-2.7798,0,-2.8224,-2.8216,-2.816,-2.8151,-2.8141,-2.8098,-2.8089,-2.8062,-2.8031,-2.8016,-2.7977,-2.7964,-2.7914,-2.7894,-2.7864,-2.7848,-2.7841,-2.7824,-2.7816,-2.7827,-2.7829,-2.7815,-2.7812,-2.7798,-2.7798,-2.7798,-2.7798,0,-2.8275,-2.8238,-2.8219,-2.8171,-2.8159,-2.8153,-2.8112,-2.8101,-2.8072,-2.8054,-2.8047,-2.8001,-2.7976,-2.7935,-2.7898,-2.7878,-2.7867,-2.7854,-2.7879,-2.7874,-2.7884,-2.7883,-2.7923,-2.7926,-2.7872,-2.7872,-2.7873,0,-2.8296,-2.8289,-2.8241,-2.8229,-2.8208,-2.8188,-2.8171,-2.813,-2.8113,-2.8074,-2.8068,-2.804,-2.8016,-2.7978,-2.7941,-2.7913,-2.7898,-2.7914,-2.7893,-2.7905,-2.7897,-2.7897,-2.7896,-2.7918,-2.7919,-2.792,-2.792,0,-2.8338,-2.832,-2.8297,-2.8269,-2.825,-2.8225,-2.8199,-2.819,-2.8143,-2.8127,-2.8101,-2.8083,-2.8046,-2.8018,-2.7985,-2.7962,-2.7933,-2.7928,-2.7927,-2.7938,-2.7952,-2.7944,-2.7891,-2.7926,-2.7926,-2.7925,-2.7925,-2.7925,-2.8373,-2.8365,-2.833,-2.8307,-2.8283,-2.8259,-2.8247,-2.8217,-2.8195,-2.8162,-2.8139,-2.8115,-2.8081,-2.8033,-2.8011,-2.7992,-2.7979,-2.7979,-2.7979,-2.798,-2.7983,-2.7957,-2.7986,-2.7986,-2.7985,-2.7985,-2.7985,0,-2.8412,-2.8388,-2.8367,-2.8331,-2.8313,-2.8289,-2.8258,-2.8244,-2.8224,-2.8195,-2.8172,-2.8143,-2.8117,-2.8079,-2.805,-2.8041,-2.8027,-2.8035,-2.8034,-2.8029,-2.7997,-2.7999,-2.8047,-2.8047,-2.8047,-2.8047,-2.8047,-2.8047,-2.843,-2.8415,-2.8393,-2.8365,-2.8341,-2.8318,-2.8302,-2.828,-2.8256,-2.8226,-2.8205,-2.818,-2.8147,-2.8116,-2.8091,-2.808,-2.8071,-2.8082,-2.8067,-2.8037,-2.8032,-2.8026,-2.8028,-2.8081,-2.8081,-2.8101,-2.8101,-2.8101]},{"header":{"parameterUnit":"m.s-1","parameterCategory":1,"la1":30.2991,"la2":30.254,"lo1":-89.0895,"lo2":-89.0444,"dy":0.0017,"dx":0.0017,"nx":28,"ny":28,"refTime":"2024-07-07T21:00:00:Z","depth":0,"parameterNumber":3,"parameterNumberName":"V-component_of_WINDS"},"data":[0,0,0,0,0,0,0,0,0,0,0,0,0,0,0,0,0,0,0,0,0,0,0,0,0,0,0,0,0,0,0,0,0,0,0,0,0,0,0,0,0,0,0,0,0,0,0,0,0,0,0,0,0,0,0,0,0,0,5.5537,5.5537,0,5.555,5.555,5.555,5.5528,5.5527,5.5527,5.5526,5.5536,5.5537,5.5538,0,0,0,0,0,0,0,0,0,0,0,0,0,5.5493,5.5494,5.5537,5.5537,5.5538,5.555,5.555,5.555,5.5528,5.5527,5.5526,5.5525,5.5536,5.5537,5.5538,0,0,0,0,0,0,0,0,0,0,0,0,0,5.551,5.5495,5.5537,5.5528,5.5528,5.555,5.555,5.555,5.5528,5.5527,5.5526,5.5525,5.5536,5.5537,5.5538,5.5569,0,0,5.5543,5.5543,0,0,0,0,0,0,0,0,5.5509,5.5511,5.5529,5.5529,5.5528,5.5536,5.5538,5.5556,5.5529,5.5528,5.5526,5.5525,5.5537,5.5538,5.5543,5.557,5.557,5.5543,5.5544,5.5544,5.5545,0,0,0,0,0,0,0,5.5508,5.5511,5.5542,5.553,5.5529,5.5523,5.5524,5.5542,5.5538,5.5528,5.5526,5.5528,5.5536,5.5542,5.5543,5.557,5.5543,5.5544,5.5545,5.5546,5.5624,5.5626,0,0,0,0,0,0,5.5508,5.551,5.5542,5.5542,5.5516,5.5525,5.5526,5.5535,5.5538,5.5538,5.5529,5.5527,5.554,5.5541,5.5543,5.558,5.5544,5.5546,5.5547,5.5623,5.5625,5.5626,0,0,0,0,0,0,5.5507,5.5511,5.5541,5.5526,5.5529,5.5527,5.5537,5.5536,5.5541,5.5539,5.5538,5.5535,5.5539,5.5541,5.5563,5.558,5.5546,5.5548,5.5622,5.5624,5.5625,5.5655,0,0,0,0,0,0,5.5506,5.5511,5.5523,5.5526,5.553,5.5562,5.5538,5.5537,5.5543,5.5541,5.5544,5.5544,5.5538,5.5561,5.5565,5.5582,5.5549,5.562,5.5623,5.5625,5.5652,5.5657,5.5662,0,0,0,0,0,5.5504,5.553,5.5523,5.5527,5.5545,5.5563,5.5565,5.5558,5.5545,5.5557,5.5556,5.5544,5.5578,5.5564,5.5568,5.5585,5.5619,5.5622,5.5625,5.565,5.5656,5.5662,0,0,0,0,0,0,5.5527,5.553,5.5523,5.555,5.5557,5.5559,5.5573,5.5565,5.5574,5.5571,5.5562,5.5563,5.5587,5.5588,5.5573,5.5616,5.5596,5.56,5.5614,5.562,5.5625,5.5624,5.555,0,0,0,0,0,5.5535,5.555,5.5551,5.5575,5.5579,5.5576,5.5583,5.5578,5.5584,5.5586,5.5587,5.5592,5.5604,5.5612,5.5623,5.5652,5.5653,5.5666,5.5671,5.5675,5.5678,5.5695,5.5701,5.5635,5.5635,5.5635,0,0,5.5552,5.5555,5.5565,5.558,5.5584,5.5599,5.5578,5.5594,5.5606,5.5588,5.5609,5.561,5.5616,5.5642,5.5654,5.5644,5.5697,5.5679,5.5682,5.5683,5.5698,5.5704,5.571,5.5637,5.5637,5.5636,0,0,5.5591,5.5595,5.5616,5.5621,5.5628,5.5626,5.5631,5.5635,5.5636,5.5657,5.5645,5.5657,5.5678,5.5683,5.5688,5.5731,5.572,5.5735,5.5759,5.5775,5.5781,5.5785,5.5801,5.5806,5.5738,5.5738,5.5738,0,5.561,5.5633,5.5627,5.5645,5.5652,5.5638,5.566,5.5665,5.5675,5.568,5.5669,5.5696,5.5698,5.5726,5.5737,5.5741,5.5747,5.5734,5.578,5.5785,5.5789,5.5804,5.581,5.574,5.5739,5.5739,5.5739,0,5.5658,5.5674,5.569,5.5702,5.571,5.573,5.5726,5.5736,5.573,5.573,5.5752,5.5755,5.5767,5.5773,5.5767,5.58,5.5794,5.5782,5.5762,5.5797,5.5811,5.5817,5.5742,5.5741,5.5741,5.5741,0,0,5.5709,5.5719,5.5725,5.5731,5.5738,5.5751,5.577,5.5782,5.5791,5.5799,5.5815,5.5833,5.5823,5.5829,5.5823,5.5837,5.5872,5.5824,5.5824,5.5833,5.5909,5.5919,5.5925,5.5865,5.5866,5.5867,5.5909,0,5.5748,5.5783,5.5778,5.5811,5.5826,5.5814,5.583,5.5837,5.5837,5.585,5.5849,5.5863,5.5848,5.5851,5.5865,5.5865,5.5887,5.5862,5.5879,5.588,5.5879,5.5932,5.5942,5.5982,5.5914,5.5915,5.5916,0,5.5798,5.581,5.5844,5.5851,5.5857,5.5872,5.5884,5.5896,5.5904,5.5903,5.5911,5.5903,5.5922,5.5902,5.5928,5.5911,5.5918,5.592,5.5921,5.5922,5.59,5.5936,5.5994,5.6,5.5924,5.5923,5.5923,0,5.5834,5.5857,5.5881,5.5886,5.5895,5.5906,5.591,5.5916,5.5924,5.5935,5.594,5.5952,5.5959,5.5968,5.5964,5.595,5.5991,5.5971,5.5991,5.5991,5.6,5.6,5.6061,5.6004,5.6004,5.6004,5.6004,0,5.5878,5.5899,5.5897,5.5912,5.5936,5.5931,5.5955,5.5957,5.5963,5.5978,5.5968,5.5982,5.5975,5.5989,5.5985,5.6008,5.6011,5.6011,5.601,5.6012,5.6012,5.6016,5.6014,5.6006,5.6005,5.6005,5.6005,0,5.5921,5.5921,5.5946,5.5953,5.5955,5.5972,5.5978,5.5992,5.5991,5.601,5.6014,5.6014,5.6029,5.6026,5.6043,5.6041,5.607,5.6065,5.6067,5.6066,5.6087,5.6085,5.6154,5.6162,5.61,5.61,5.6101,0,5.5949,5.5966,5.5975,5.5985,5.599,5.6006,5.6015,5.6011,5.602,5.6031,5.6044,5.6058,5.607,5.6095,5.6096,5.6109,5.6105,5.6128,5.6106,5.6109,5.6106,5.6105,5.6107,5.6132,5.6133,5.6133,5.6134,0,5.6,5.5999,5.6013,5.6028,5.604,5.605,5.606,5.6068,5.6065,5.6077,5.6093,5.6102,5.612,5.6135,5.6147,5.6151,5.6142,5.614,5.6146,5.6148,5.615,5.615,5.6079,5.6139,5.6138,5.6138,5.6138,5.6137,5.6037,5.6052,5.6061,5.6077,5.6085,5.6094,5.6108,5.6111,5.6125,5.614,5.6136,5.6155,5.6163,5.6178,5.6183,5.6198,5.6189,5.6197,5.6199,5.6201,5.6204,5.6147,5.62,5.6199,5.6199,5.6199,5.6199,0,5.6088,5.6093,5.6109,5.6124,5.6137,5.6128,5.6139,5.615,5.6167,5.6176,5.6188,5.6207,5.6222,5.6225,5.6239,5.625,5.6246,5.6254,5.6253,5.6254,5.621,5.6204,5.6256,5.6256,5.6256,5.6256,5.6256,5.6256,5.6116,5.6141,5.6142,5.617,5.6176,5.6195,5.6202,5.6211,5.6218,5.624,5.6253,5.6255,5.6261,5.6276,5.6289,5.6289,5.6295,5.6304,5.6303,5.6262,5.6257,5.6251,5.6246,5.6306,5.6306,5.6346,5.6346,5.6346]}]]